TimeEDT,TemperatureF,Dew PointF,Humidity,Sea Level PressureIn,VisibilityMPH,Wind Direction,Wind SpeedMPH,Gust SpeedMPH,PrecipitationIn,Events,Conditions,WindDirDegrees,DateUTC
12:54 AM,34.0,27.0,75,30.23,10.0,NW,4.6,-,N/A,,Mostly Cloudy,310,2013-10-25 04:54:00
1:54 AM,37.0,28.0,70,30.23,10.0,NW,5.8,-,N/A,,Overcast,310,2013-10-25 05:54:00
2:54 AM,35.1,28.0,76,30.24,10.0,West,4.6,-,N/A,,Mostly Cloudy,280,2013-10-25 06:54:00
3:54 AM,34.0,28.0,79,30.25,10.0,West,5.8,-,N/A,,Clear,270,2013-10-25 07:54:00
4:54 AM,34.0,28.0,79,30.27,10.0,WNW,6.9,-,N/A,,Clear,290,2013-10-25 08:54:00
5:54 AM,35.1,28.0,76,30.29,10.0,SW,5.8,-,N/A,,Clear,220,2013-10-25 09:54:00
6:54 AM,37.0,28.0,70,30.31,10.0,Calm,Calm,-,N/A,,Scattered Clouds,0,2013-10-25 10:54:00
7:54 AM,36.0,27.0,70,30.33,10.0,Calm,Calm,-,N/A,,Partly Cloudy,0,2013-10-25 11:54:00
8:54 AM,39.9,28.0,63,30.34,10.0,Variable,3.5,-,N/A,,Partly Cloudy,0,2013-10-25 12:54:00
9:54 AM,43.0,25.0,49,30.36,10.0,NNW,15.0,18.4,N/A,,Scattered Clouds,330,2013-10-25 13:54:00
10:54 AM,44.1,24.1,45,30.38,10.0,NNW,17.3,27.6,N/A,,Mostly Cloudy,340,2013-10-25 14:54:00
11:54 AM,46.9,25.0,42,30.38,10.0,NNW,8.1,20.7,N/A,,Overcast,340,2013-10-25 15:54:00
12:54 PM,48.0,25.0,41,30.37,10.0,NW,15.0,21.9,N/A,,Scattered Clouds,320,2013-10-25 16:54:00
1:54 PM,48.0,24.1,39,30.35,10.0,NW,10.4,-,N/A,,Scattered Clouds,310,2013-10-25 17:54:00
2:54 PM,48.9,23.0,36,30.34,10.0,NNW,12.7,-,N/A,,Scattered Clouds,330,2013-10-25 18:54:00
3:54 PM,48.9,23.0,36,30.35,10.0,NW,11.5,-,N/A,,Partly Cloudy,310,2013-10-25 19:54:00
4:54 PM,44.1,21.9,42,30.36,10.0,NW,15.0,-,N/A,,Partly Cloudy,310,2013-10-25 20:54:00
5:54 PM,44.1,23.0,43,30.36,10.0,NW,11.5,-,N/A,,Clear,310,2013-10-25 21:54:00
6:54 PM,39.0,23.0,53,30.38,10.0,NW,9.2,-,N/A,,Partly Cloudy,320,2013-10-25 22:54:00
7:54 PM,37.0,24.1,59,30.38,10.0,WNW,5.8,-,N/A,,Partly Cloudy,300,2013-10-25 23:54:00
8:54 PM,35.1,25.0,67,30.39,10.0,NW,3.5,-,N/A,,Clear,320,2013-10-26 00:54:00
9:54 PM,33.1,25.0,72,30.39,10.0,West,3.5,-,N/A,,Clear,260,2013-10-26 01:54:00
10:54 PM,33.1,24.1,70,30.39,10.0,Calm,Calm,-,N/A,,Clear,0,2013-10-26 02:54:00
11:54 PM,32.0,24.1,73,30.39,10.0,WNW,4.6,-,N/A,,Clear,290,2013-10-26 03:54:00